Hourly Data Report for September 11, 2017

All times are specified in Local Standard Time (LST). Add 1 hour to adjust for Daylight Saving Time where and when it is observed.

NAPPAN AUTO
NOVA SCOTIA

45°45'34.400" N
64°14'29.200" W
19.80 m
8203702
71311
XNP

Download Data

Hourly Data (September 2017)
Hourly Data Report for September 11, 2017
Temp Definition
°C
Dew Point Temp Definition
°C
Rel Hum Definition
%
Wind Dir Definition
10's deg

Wind Spd Definition
km/h
Visibility Definition
km
Stn Press Definition
kPa
Hmdx Definition


Wind Chill Definition


Weather Definition


TIME
00:00 8.2 7.7 97 16 5   101.71     LegendNANA
01:00 7.9 7.5 97 16 6   101.64     LegendNANA
02:00 8.1 7.7 97 16 3   101.58     LegendNANA
03:00 12.0 10.3 89 33 14   101.55     LegendNANA
04:00 12.1 10.7 91 34 16   101.53     LegendNANA
05:00 11.7 10.4 92 34 14   101.50     LegendNANA
06:00 11.6 10.6 94 33 8   101.51     LegendNANA
07:00 12.6 11.2 91 32 10   101.55     LegendNANA
08:00 13.3 11.8 91 32 11   101.50     LegendNANA
09:00 13.8 11.6 87 31 14   101.49     LegendNANA
10:00 14.2 11.9 86 33 15   101.49     LegendNANA
11:00 16.3 12.6 79 36 21   101.44     LegendNANA
12:00 16.9 12.2 74 36 30   101.38     LegendNANA
13:00 16.4 12.1 76 34 29   101.35     LegendNANA
14:00 17.2 11.4 69 35 35   101.34     LegendNANA
15:00 17.6 11.7 68 35 28   101.28     LegendNANA
16:00 16.7 11.2 70 35 31   101.23     LegendNANA
17:00 16.1 11.4 74 35 26   101.26     LegendNANA
18:00 15.4 11.2 76 36 23   101.21     LegendNANA
19:00 13.9 11.1 84 36 19   101.19     LegendNANA
20:00 12.9 10.7 87 35 14   101.25     LegendNANA
21:00 12.1 10.7 92 36 12   101.24     LegendNANA
22:00 11.1 10.0 93 1 10   101.18     LegendNANA
23:00 11.1 9.7 92 34 6   101.18     LegendNANA

Notes on Data Quality.

Legend

  • E = Estimated
  • M = Missing
  • NA = Not Available
  • ‡ = Partner data that is not subject to review by the National Climate Archives
Date modified: